[[{"header":{"parameterUnit":"m.s-1","parameterCategory":1,"la1":30.2991,"la2":30.254,"lo1":-89.0895,"lo2":-89.0444,"dy":0.0017,"dx":0.0017,"nx":28,"ny":28,"refTime":"2025-11-28T09:00:00:Z","depth":0,"parameterNumber":2,"parameterNumberName":"U-component_of_WINDS"},"data":[0,0,0,0,0,0,0,0,0,0,0,0,0,0,0,0,0,0,0,0,0,0,0,0,0,0,0,0,0,0,0,0,0,0,0,0,0,0,0,0,0,0,0,0,0,0,0,0,0,0,0,0,0,0,0,0,0,0,-3.1866,-3.1868,0,-3.2001,-3.2002,-3.2004,-3.203,-3.2029,-3.2028,-3.2027,-3.2163,-3.2168,-3.2172,0,0,0,0,0,0,0,0,0,0,0,0,0,-3.1632,-3.1636,-3.1866,-3.1868,-3.187,-3.2001,-3.2003,-3.2004,-3.203,-3.2029,-3.2027,-3.2026,-3.2162,-3.2167,-3.2173,0,0,0,0,0,0,0,0,0,0,0,0,0,-3.1747,-3.1637,-3.1866,-3.1898,-3.1902,-3.2,-3.2003,-3.2005,-3.203,-3.2029,-3.2027,-3.2026,-3.216,-3.2167,-3.2174,-3.2248,0,0,-3.2195,-3.2198,0,0,0,0,0,0,0,0,-3.174,-3.1755,-3.1892,-3.1896,-3.1901,-3.1997,-3.197,-3.2086,-3.2031,-3.1982,-3.2027,-3.2025,-3.2109,-3.212,-3.2149,-3.2255,-3.2261,-3.2195,-3.22,-3.2203,-3.2205,0,0,0,0,0,0,0,-3.1732,-3.175,-3.1919,-3.1894,-3.1899,-3.1906,-3.1921,-3.1992,-3.2053,-3.1986,-3.1988,-3.2004,-3.2111,-3.2142,-3.2152,-3.2263,-3.2195,-3.2201,-3.2206,-3.2208,-3.2439,-3.2441,0,0,0,0,0,0,-3.1718,-3.1743,-3.1915,-3.1923,-3.1815,-3.1912,-3.1928,-3.1968,-3.2052,-3.2063,-3.2005,-3.2004,-3.2131,-3.2144,-3.2157,-3.2251,-3.2203,-3.2209,-3.2213,-3.2437,-3.2439,-3.2441,0,0,0,0,0,0,-3.1713,-3.1734,-3.191,-3.1834,-3.1857,-3.1917,-3.1962,-3.1971,-3.2002,-3.2066,-3.2077,-3.2025,-3.213,-3.2147,-3.2226,-3.2256,-3.2212,-3.2219,-3.2435,-3.2438,-3.244,-3.2438,0,0,0,0,0,0,-3.1707,-3.1732,-3.176,-3.1834,-3.1861,-3.1976,-3.1964,-3.1975,-3.2014,-3.2015,-3.2088,-3.2099,-3.213,-3.2216,-3.2233,-3.2265,-3.2224,-3.2432,-3.2436,-3.2439,-3.2436,-3.244,-3.2445,0,0,0,0,0,-3.1698,-3.1753,-3.1761,-3.1782,-3.1898,-3.1977,-3.1993,-3.2028,-3.2016,-3.2046,-3.2088,-3.2097,-3.2251,-3.2223,-3.2243,-3.2277,-3.243,-3.2435,-3.2439,-3.2434,-3.244,-3.2445,0,0,0,0,0,0,-3.168,-3.1764,-3.1773,-3.1854,-3.1909,-3.1982,-3.2019,-3.2033,-3.2091,-3.2089,-3.2131,-3.2147,-3.2223,-3.2259,-3.2227,-3.2355,-3.234,-3.2348,-3.2329,-3.2335,-3.2339,-3.2328,-3.223,0,0,0,0,0,-3.1686,-3.1743,-3.1814,-3.1878,-3.1905,-3.1958,-3.1994,-3.2017,-3.2075,-3.2097,-3.2145,-3.22,-3.2262,-3.2301,-3.236,-3.2442,-3.2459,-3.2476,-3.248,-3.2484,-3.249,-3.2537,-3.2545,-3.2456,-3.2456,-3.2456,0,0,-3.1697,-3.175,-3.1784,-3.1876,-3.1921,-3.198,-3.1977,-3.2039,-3.2083,-3.2107,-3.2184,-3.2221,-3.2286,-3.2367,-3.2405,-3.2399,-3.2519,-3.2489,-3.2491,-3.2496,-3.2542,-3.255,-3.2558,-3.2459,-3.2458,-3.2458,0,0,-3.1748,-3.1795,-3.1854,-3.19,-3.1968,-3.2003,-3.2018,-3.209,-3.2115,-3.2194,-3.2213,-3.2267,-3.2371,-3.2417,-3.2454,-3.2527,-3.2537,-3.2545,-3.2567,-3.2613,-3.262,-3.2626,-3.2652,-3.2661,-3.2552,-3.2552,-3.2552,0,-3.1754,-3.1843,-3.1883,-3.1945,-3.1985,-3.2011,-3.2072,-3.2114,-3.2198,-3.2226,-3.2218,-3.2351,-3.2396,-3.2489,-3.2507,-3.2536,-3.2554,-3.2535,-3.2616,-3.2623,-3.2629,-3.2654,-3.2664,-3.2552,-3.2552,-3.2552,-3.2552,0,-3.1847,-3.1909,-3.1949,-3.2031,-3.2076,-3.2137,-3.2186,-3.2227,-3.2248,-3.2284,-3.2364,-3.2421,-3.2493,-3.2517,-3.2537,-3.2613,-3.2607,-3.2608,-3.2592,-3.2637,-3.2661,-3.2671,-3.2553,-3.2553,-3.2552,-3.2552,0,0,-3.1886,-3.1992,-3.2005,-3.2043,-3.2123,-3.2172,-3.2235,-3.2307,-3.2341,-3.24,-3.2454,-3.2543,-3.2545,-3.2587,-3.2613,-3.2653,-3.2707,-3.2648,-3.2651,-3.2656,-3.2795,-3.2792,-3.2803,-3.2716,-3.2718,-3.2719,-3.2789,0,-3.1946,-3.2059,-3.2098,-3.2192,-3.225,-3.2278,-3.2333,-3.2388,-3.2425,-3.248,-3.2521,-3.2583,-3.2581,-3.2606,-3.2647,-3.2691,-3.2735,-3.2687,-3.2766,-3.2768,-3.2746,-3.2815,-3.2813,-3.2875,-3.2799,-3.28,-3.2801,0,-3.203,-3.209,-3.219,-3.2264,-3.229,-3.2339,-3.2408,-3.2461,-3.2525,-3.2549,-3.2598,-3.2621,-3.269,-3.2673,-3.2768,-3.2734,-3.277,-3.2797,-3.28,-3.2807,-3.2786,-3.2823,-3.2896,-3.2905,-3.2817,-3.2815,-3.2814,0,-3.2047,-3.2154,-3.2228,-3.226,-3.2348,-3.2382,-3.242,-3.2483,-3.2524,-3.2586,-3.2613,-3.2682,-3.2719,-3.2772,-3.2814,-3.2798,-3.2905,-3.2892,-3.2927,-3.2926,-3.2945,-3.2943,-3.3024,-3.2971,-3.2971,-3.2971,-3.2971,0,-3.2109,-3.2168,-3.2238,-3.2282,-3.2351,-3.2396,-3.2463,-3.2503,-3.2559,-3.2613,-3.2642,-3.2692,-3.2745,-3.2803,-3.2837,-3.291,-3.2927,-3.2949,-3.2956,-3.2945,-3.2942,-3.2966,-3.2962,-3.2974,-3.2973,-3.2973,-3.2972,0,-3.2138,-3.2187,-3.2269,-3.2347,-3.2369,-3.2415,-3.2482,-3.2528,-3.2567,-3.2635,-3.2654,-3.2715,-3.2785,-3.2833,-3.2922,-3.2945,-3.3025,-3.3033,-3.3003,-3.3006,-3.3038,-3.3034,-3.3136,-3.3152,-3.309,-3.309,-3.3091,0,-3.2173,-3.222,-3.2303,-3.2342,-3.238,-3.2442,-3.2485,-3.2532,-3.2576,-3.2654,-3.269,-3.2762,-3.2821,-3.2932,-3.2984,-3.3053,-3.3063,-3.3094,-3.3073,-3.306,-3.3062,-3.3058,-3.3063,-3.3096,-3.3096,-3.3097,-3.3097,0,-3.2229,-3.2252,-3.2312,-3.2382,-3.2433,-3.249,-3.2547,-3.2578,-3.2635,-3.2683,-3.2755,-3.2801,-3.2894,-3.2965,-3.3039,-3.308,-3.3098,-3.3104,-3.3116,-3.3103,-3.3083,-3.3093,-3.301,-3.31,-3.31,-3.31,-3.31,-3.31,-3.2262,-3.2305,-3.2371,-3.2438,-3.2487,-3.2541,-3.2587,-3.2634,-3.2695,-3.2773,-3.2798,-3.2873,-3.2939,-3.3041,-3.3083,-3.3142,-3.314,-3.3157,-3.3161,-3.3164,-3.3163,-3.3076,-3.3156,-3.3156,-3.3156,-3.3156,-3.3156,0,-3.2318,-3.2363,-3.2424,-3.2504,-3.2558,-3.2573,-3.2638,-3.2681,-3.2747,-3.2806,-3.2865,-3.2949,-3.3019,-3.3079,-3.3152,-3.3188,-3.3198,-3.3205,-3.3202,-3.3211,-3.3161,-3.3143,-3.3196,-3.3196,-3.3196,-3.3196,-3.3196,-3.3196,-3.2353,-3.2428,-3.2459,-3.2558,-3.2603,-3.2676,-3.2712,-3.2763,-3.2811,-3.2903,-3.2961,-3.3,-3.3061,-3.3139,-3.3204,-3.322,-3.3245,-3.325,-3.3267,-3.3219,-3.3214,-3.321,-3.3193,-3.3255,-3.3255,-3.3312,-3.3313,-3.3313]},{"header":{"parameterUnit":"m.s-1","parameterCategory":1,"la1":30.2991,"la2":30.254,"lo1":-89.0895,"lo2":-89.0444,"dy":0.0017,"dx":0.0017,"nx":28,"ny":28,"refTime":"2025-11-28T09:00:00:Z","depth":0,"parameterNumber":3,"parameterNumberName":"V-component_of_WINDS"},"data":[0,0,0,0,0,0,0,0,0,0,0,0,0,0,0,0,0,0,0,0,0,0,0,0,0,0,0,0,0,0,0,0,0,0,0,0,0,0,0,0,0,0,0,0,0,0,0,0,0,0,0,0,0,0,0,0,0,0,-0.8826,-0.8831,0,-0.936,-0.9366,-0.9372,-0.9651,-0.9651,-0.9652,-0.9652,-1.0188,-1.0201,-1.0215,0,0,0,0,0,0,0,0,0,0,0,0,0,-0.8037,-0.805,-0.8825,-0.8832,-0.8839,-0.9358,-0.9366,-0.9373,-0.9651,-0.9651,-0.9652,-0.9652,-1.0183,-1.02,-1.0216,0,0,0,0,0,0,0,0,0,0,0,0,0,-0.8455,-0.8054,-0.8824,-0.904,-0.9065,-0.9357,-0.9366,-0.9375,-0.9651,-0.9651,-0.9652,-0.9653,-1.0178,-1.0198,-1.0219,-1.0333,0,0,-1.0282,-1.0291,0,0,0,0,0,0,0,0,-0.8431,-0.8484,-0.9002,-0.9026,-0.9054,-0.944,-0.9285,-0.9696,-0.9651,-0.9428,-0.9652,-0.9653,-0.9938,-0.9978,-1.0077,-1.0358,-1.0381,-1.0284,-1.0296,-1.0305,-1.0311,0,0,0,0,0,0,0,-0.8402,-0.8462,-0.9036,-0.9009,-0.9041,-0.9107,-0.9168,-0.9364,-0.9672,-0.9447,-0.9469,-0.9529,-0.9952,-1.0056,-1.0091,-1.0389,-1.0283,-1.0302,-1.0315,-1.0323,-1.0791,-1.0791,0,0,0,0,0,0,-0.8339,-0.8436,-0.9019,-0.9052,-0.8738,-0.9121,-0.9188,-0.9315,-0.9671,-0.9726,-0.9528,-0.954,-1.002,-1.0067,-1.0111,-1.0269,-1.0305,-1.0325,-1.0337,-1.0791,-1.0791,-1.0791,0,0,0,0,0,0,-0.8321,-0.8389,-0.8998,-0.8751,-0.8833,-0.9134,-0.9274,-0.9325,-0.943,-0.9732,-0.9787,-0.9578,-1.0022,-1.0082,-1.0277,-1.0292,-1.0334,-1.0353,-1.0791,-1.0791,-1.0791,-1.0585,0,0,0,0,0,0,-0.8298,-0.8381,-0.843,-0.875,-0.8846,-0.9157,-0.9275,-0.9335,-0.9466,-0.9487,-0.9794,-0.9845,-1.0027,-1.0244,-1.0297,-1.0321,-1.0369,-1.0791,-1.0791,-1.0791,-1.0592,-1.0578,-1.0566,0,0,0,0,0,-0.8269,-0.8348,-0.8431,-0.85,-0.8914,-0.9158,-0.9212,-0.9424,-0.9466,-0.9516,-0.971,-0.9835,-1.0281,-1.0262,-1.0324,-1.0354,-1.0791,-1.0791,-1.0791,-1.0597,-1.0581,-1.0566,0,0,0,0,0,0,-0.8019,-0.8394,-0.849,-0.8676,-0.8883,-0.9204,-0.9275,-0.9399,-0.9596,-0.9607,-0.9858,-0.9924,-1.0095,-1.0245,-1.0216,-1.0483,-1.0549,-1.0561,-1.038,-1.0367,-1.0354,-1.0314,-1.0386,0,0,0,0,0,-0.7985,-0.8155,-0.8473,-0.8606,-0.8706,-0.8971,-0.9086,-0.9231,-0.9454,-0.9542,-0.9751,-0.9959,-1.0147,-1.0265,-1.0454,-1.0614,-1.0684,-1.0665,-1.0652,-1.064,-1.0648,-1.0742,-1.0737,-1.0791,-1.0791,-1.0791,0,0,-0.7918,-0.8144,-0.8236,-0.8562,-0.874,-0.8907,-0.9043,-0.9215,-0.9341,-0.9567,-0.9766,-0.9925,-1.0174,-1.0351,-1.044,-1.0481,-1.0648,-1.064,-1.0628,-1.0643,-1.0742,-1.0736,-1.0731,-1.0791,-1.0791,-1.0791,0,0,-0.7882,-0.807,-0.8203,-0.8378,-0.8647,-0.8823,-0.8853,-0.9157,-0.9273,-0.9476,-0.965,-0.9801,-1.0119,-1.0289,-1.0417,-1.0444,-1.0565,-1.0498,-1.043,-1.052,-1.0515,-1.0513,-1.0521,-1.0522,-1.0504,-1.0504,-1.0504,0,-0.7763,-0.8026,-0.8254,-0.8417,-0.8554,-0.877,-0.8904,-0.9062,-0.9376,-0.9465,-0.9507,-0.9911,-1.0093,-1.0314,-1.032,-1.0417,-1.0458,-1.0464,-1.0498,-1.0498,-1.0499,-1.051,-1.0513,-1.0494,-1.0495,-1.0496,-1.0497,0,-0.7867,-0.8046,-0.812,-0.8422,-0.8568,-0.8715,-0.8962,-0.9081,-0.9213,-0.9383,-0.9585,-0.9813,-1.0052,-1.0115,-1.0243,-1.0353,-1.037,-1.0451,-1.0522,-1.048,-1.0495,-1.0501,-1.048,-1.0483,-1.0486,-1.0489,0,0,-0.7688,-0.8115,-0.8139,-0.8278,-0.859,-0.8731,-0.8886,-0.9124,-0.9221,-0.9429,-0.9564,-0.9828,-0.9906,-1.0051,-1.02,-1.0279,-1.0284,-1.0352,-1.0361,-1.033,-1.0417,-1.0353,-1.0354,-1.0366,-1.0368,-1.0369,-1.0395,0,-0.7696,-0.799,-0.8199,-0.841,-0.8577,-0.8784,-0.8919,-0.9122,-0.9285,-0.9448,-0.9626,-0.9809,-0.9899,-0.9988,-1.0074,-1.0265,-1.0304,-1.0266,-1.0491,-1.0496,-1.0423,-1.0363,-1.0297,-1.031,-1.0403,-1.0404,-1.0405,0,-0.7745,-0.795,-0.8178,-0.8473,-0.8551,-0.8669,-0.8903,-0.9057,-0.9291,-0.9403,-0.9564,-0.9719,-0.9888,-0.9943,-1.0178,-1.0146,-1.0251,-1.0357,-1.0363,-1.0392,-1.0448,-1.0389,-1.032,-1.0321,-1.0416,-1.0415,-1.0414,0,-0.7591,-0.7924,-0.8105,-0.8218,-0.8565,-0.8643,-0.879,-0.9026,-0.9155,-0.9357,-0.9443,-0.966,-0.9779,-0.9942,-1.0149,-1.017,-1.0362,-1.0434,-1.0458,-1.0452,-1.0489,-1.0484,-1.0435,-1.0555,-1.0555,-1.0555,-1.0555,0,-0.7577,-0.7709,-0.8041,-0.8151,-0.8304,-0.8541,-0.8684,-0.8848,-0.9055,-0.9199,-0.9389,-0.9519,-0.9786,-0.9946,-1.0109,-1.0277,-1.0329,-1.0423,-1.0464,-1.0406,-1.0394,-1.0478,-1.0482,-1.0556,-1.0556,-1.0555,-1.0555,0,-0.7431,-0.7659,-0.787,-0.8182,-0.8263,-0.8361,-0.8627,-0.8741,-0.8914,-0.9093,-0.9148,-0.9418,-0.9617,-0.9841,-1.0112,-1.0222,-1.0379,-1.0439,-1.0301,-1.0325,-1.0336,-1.0331,-1.0339,-1.0351,-1.046,-1.0459,-1.0458,0,-0.7408,-0.7515,-0.7839,-0.7951,-0.8094,-0.8271,-0.8405,-0.8641,-0.8772,-0.9046,-0.9125,-0.9339,-0.9524,-0.9831,-1.0049,-1.0257,-1.0324,-1.0312,-1.0356,-1.0294,-1.0323,-1.0314,-1.0325,-1.0298,-1.0296,-1.0294,-1.0293,0,-0.7342,-0.7449,-0.7637,-0.7863,-0.8018,-0.8207,-0.8402,-0.8482,-0.8756,-0.8892,-0.9101,-0.9244,-0.9523,-0.9732,-0.9968,-1.0116,-1.0248,-1.0277,-1.0294,-1.0235,-1.015,-1.0196,-1.0266,-1.0276,-1.0278,-1.0279,-1.028,-1.028,-0.7257,-0.7361,-0.7606,-0.7808,-0.7981,-0.8159,-0.8282,-0.8471,-0.865,-0.8899,-0.9026,-0.9232,-0.9461,-0.9792,-0.9935,-1.0097,-1.014,-1.0164,-1.017,-1.0172,-1.0155,-1.0124,-1.014,-1.0141,-1.0142,-1.0143,-1.0143,0,-0.7201,-0.7369,-0.7552,-0.7822,-0.7979,-0.8095,-0.8318,-0.8441,-0.8621,-0.8826,-0.9004,-0.9242,-0.9445,-0.9679,-0.9896,-0.998,-1.0046,-1.0029,-1.0025,-1.0057,-1.0105,-1.0069,-0.9972,-0.9972,-0.9972,-0.9972,-0.9972,-0.9972,-0.719,-0.7372,-0.7508,-0.7777,-0.7944,-0.8151,-0.8268,-0.8432,-0.8597,-0.8856,-0.9028,-0.918,-0.9396,-0.963,-0.9821,-0.9884,-0.9954,-0.9919,-0.9999,-1.0039,-1.0053,-1.0067,-1.0035,-0.9932,-0.9932,-0.9938,-0.9938,-0.9938]}]]